Regional Weather Roundup
Issued by NWS State College, PA

Home | Current Version | Previous Version | Graphics & Text | Print | Product List | Glossary Off
Versions: 1 2 3 4 5 6 7 8 9 10 11 12 13 14 15 16 17 18 19 20 21 22 23 24 25 26 27 28 29 30 31 32 33 34 35 36 37 38 39 40 41 42 43 44 45 46 47 48 49 50

000
ASUS41 KCTP 061503
RWRCTP

REGIONAL WEATHER ROUNDUP
NATIONAL WEATHER SERVICE STATE COLLEGE PA
1100 AM EDT MON JUL 06 2015

Note: "fair" indicates few or no clouds below 12,000 feet with no
significant weather and/or obstructions to visibility.

* = STATION THAT DOES NOT REPORT PRECIPITATION /E.G. RAIN...SNOW...ETC/
    THUNDER OR FOG.

PAZ002>004-007>009-013>016-020>023-029>032-061600-
WESTERN PENNSYLVANIA

CITY           SKY/WX    TMP DP  RH WIND       PRES   REMARKS
ERIE           PTSUNNY   76  66  71 NW7       30.08R
MEADVILLE      PTSUNNY   77  66  68 VRB3      30.11S
FRANKLIN*      MOSUNNY   75  64  69 CALM      30.12F
NEW CASTLE     FAIR      80  70  71 CALM      30.09F
BEAVER COUNTY  CLOUDY    79  68  69 SE5       30.09F
BUTLER*        PTSUNNY   75  68  78 SE10      30.11F
PITTSBURGH INT PTSUNNY   77  68  73 SE6       30.09S
PITTSBURGH     CLOUDY    75  65  70 S7        30.09S
INDIANA*       PTSUNNY   75  70  83 VRB5      30.15S
LATROBE        PTSUNNY   75  70  83 CALM      30.10S
WASHINGTON CO* NOT AVBL
$$

PAZ004>006-010>012-017>019-024>028-033>037-041-042-045-046-049>053-061600-
CENTRAL PENNSYLVANIA

CITY           SKY/WX    TMP DP  RH WIND       PRES   REMARKS
BRADFORD       CLOUDY    71  63  75 S5        30.17R
DUBOIS         PTSUNNY   75  65  70 S7        30.14R
CLEARFIELD     CLOUDY    69  65  86 E5        30.15S
JOHNSTOWN      CLOUDY    71  65  81 S7        30.15S
ALTOONA        CLOUDY    70  67  90 SE3       30.15F
STATE COLLEGE  CLOUDY    73  68  83 CALM      30.14F
WILLIAMSPORT   CLOUDY    75  66  73 CALM      30.13F
SELINSGROVE    CLOUDY    75  69  81 CALM      30.14F
FT INDIANTOWN  CLOUDY    74  69  83 E1        30.14F
CAPITAL CITY   CLOUDY    76  69  79 E7        30.13F
HARRISBURG     CLOUDY    77  70  79 SE6       30.12F
YORK           PTSUNNY   77  69  76 SE8       30.13F
$$

PAZ038>040-043-044-047-048-054-055-060>062-067>071-061600-
EASTERN PENNSYLVANIA

CITY           SKY/WX    TMP DP  RH WIND       PRES   REMARKS
SCRANTON       CLOUDY    77  65  66 CALM      30.16F
MOUNT POCONO   CLOUDY    72  63  73 S7        30.23R
ALLENTOWN      CLOUDY    79  67  66 VRB6      30.17R
QUAKERTOWN*    PTSUNNY   77  68  73 SE3       30.18S
READING        PTSUNNY   79  68  69 VRB6      30.14F
LANCASTER      PTSUNNY   77  70  79 SE7       30.14F
COATESVILLE    PTSUNNY   75  72  88 SE5       30.18S
POTTSTOWN      PTSUNNY   77  69  76 S3        30.17F
BLUE BELL      PTSUNNY   81  70  69 SE6       30.16S
DOYLESTOWN     PTSUNNY   77  67  71 VRB5      30.17R
WILLOW GROVE   NOT AVBL
NORTH PHILA    CLOUDY    80  67  64 SE5       30.17S
PHILADELPHIA   CLOUDY    81  70  69 SE7       30.16R
$$


USA.gov is the U.S. government's official web portal to all federal, state and local government web resources and services.